Flag for Germany Weather past 2 weeks in Solingen, North Rhine-Westphalia, Germany

Now
88 °F

Scattered clouds.


Feels Like: 89 °F
Forecast: 68 / 86 °F
Wind: 12 mph from South

Location: Duesseldorf

Current Time: Jul 4, 2015 at 11:08:58 AM

Latest Report: Jul 4, 2015 at 10:20 AM


Visibility: N/A

Pressure: 30.04 "Hg

Humidity: 46%

Dew point: 64 °F

Location of SolingenLocation

Historic Weather in Solingen — Graph

°F

Solingen temperature yesterday

Maximum temperature yesterday: 91 °F (at 4:50 PM)
Minimum temperature yesterday: 68 °F (at 5:20 AM)
Average temperature yesterday: 80 °F

Past Weeks' High & Low Weather Summary

 TemperatureHumidityPressure
High99 °F (Jul 2, 3:20 PM)100% (Jun 22, 8:50 AM)30.24 "Hg (Jun 22, 8:50 AM)
Low50 °F (Jun 22, 10:20 PM)23% (Jul 1, 5:20 PM)29.71 "Hg (Jun 22, 5:50 PM)
Average67 °F67%30.07 "Hg
* Reported Jun 19 9:20 AM — Jul 4 9:50 AM, Solingen, Weather by CustomWeather, © 2015

Note: Actual official high and low records may vary slightly from our data, if they occured in-between our weather recording intervals... More about our weather records

Advertising

Solingen weather history for previous 24 hours

 ConditionsComfort  
Time TempWeatherWind HumidityBarometerVisibility
9:50 AM
Sat, Jul 4
88 °FScattered clouds.14 mph52%30.04 "HgN/A
9:20 AM86 °FScattered clouds.14 mph52%30.04 "HgN/A
8:50 AM86 °FScattered clouds.13 mph52%30.04 "HgN/A
8:20 AM82 °FSunny.8 mph62%30.04 "Hg10 mi
7:50 AM79 °FSunny.7 mph70%30.04 "Hg10 mi
7:20 AM75 °FSunny.6 mph78%30.04 "Hg10 mi
6:50 AM72 °FSunny.5 mph88%30.04 "Hg10 mi
6:20 AM72 °FClear.3 mph88%30.07 "Hg10 mi
5:50 AM72 °FClear.3 mph83%30.07 "Hg10 mi
5:20 AM72 °FClear.2 mph83%30.07 "Hg10 mi
4:50 AM72 °FClear.3 mph83%30.07 "Hg10 mi
4:20 AM72 °FClear.1 mph83%30.07 "Hg10 mi
3:50 AM73 °FClear.5 mph78%30.09 "Hg10 mi
3:20 AM73 °FClear.2 mph78%30.09 "Hg10 mi
2:50 AM75 °FClear.5 mph74%30.09 "Hg10 mi
2:20 AM75 °FClear.5 mph74%30.12 "Hg10 mi
1:50 AM75 °FClear.5 mph74%30.12 "Hg10 mi
1:20 AM77 °FClear.7 mph69%30.12 "Hg10 mi
12:50 AM79 °FClear.7 mph65%30.12 "Hg10 mi
12:20 AM79 °FClear.8 mph65%30.15 "Hg10 mi
11:50 PM
Fri, Jul 3
79 °FClear.8 mph65%30.15 "Hg10 mi
11:20 PM79 °FClear.9 mph70%30.15 "Hg10 mi
10:50 PM81 °FSunny.9 mph66%30.15 "Hg10 mi
10:20 PM82 °FSunny.9 mph62%30.15 "Hg10 mi
9:50 PM84 °FSunny.8 mph58%30.15 "Hg10 mi
9:20 PM84 °FSunny.8 mph55%30.15 "Hg10 mi
8:50 PM86 °FSunny.9 mph55%30.15 "Hg10 mi
8:20 PM88 °FSunny.10 mph52%30.15 "Hg10 mi
7:50 PM90 °FSunny.8 mph46%30.15 "Hg10 mi
7:20 PM90 °FSunny.7 mph46%30.15 "Hg10 mi
6:50 PM90 °FSunny.7 mph43%30.15 "Hg10 mi
6:20 PM90 °FSunny.8 mph46%30.15 "Hg10 mi
5:50 PM91 °FSunny.3 mph44%30.15 "Hg10 mi
5:20 PM91 °FSunny.5 mph44%30.18 "Hg10 mi
4:50 PM91 °FSunny.7 mph44%30.18 "Hg10 mi
4:20 PM90 °FPassing clouds.5 mph46%30.18 "HgN/A
3:50 PM90 °FSunny.5 mph43%30.18 "Hg10 mi
3:20 PM90 °FSunny.6 mph43%30.18 "Hg10 mi
2:50 PM88 °FPassing clouds.6 mph52%30.21 "HgN/A
2:20 PM88 °FPassing clouds.5 mph49%30.21 "HgN/A
1:50 PM86 °FSunny.6 mph52%30.21 "Hg10 mi
1:20 PM86 °FSunny.3 mph52%30.21 "Hg10 mi
12:50 PM84 °FPassing clouds.5 mph55%30.21 "HgN/A
12:20 PM84 °FSunny.5 mph58%30.21 "Hg10 mi
11:50 AM82 °FSunny.3 mph58%30.24 "Hg10 mi
11:20 AM81 °FPassing clouds.5 mph62%30.24 "HgN/A
Weather by CustomWeather, © 2015

See weather overviewHow to use our weather pages